Regional Weather Roundup
Issued by NWS

Home | Current Version | Previous Version | Graphics & Text | Print | Product List | Glossary On
Versions: 1 2 3 4 5 6 7 8 9 10 11 12 13 14 15 16 17 18 19 20 21 22 23 24 25 26 27 28 29 30 31 32 33 34 35 36 37 38 39 40 41 42 43 44 45 46 47 48 49 50
000
ASUS43 KIND 230409
RWRIN

WEATHER ROUNDUP FOR INDIANA
NATIONAL WEATHER SERVICE INDIANAPOLIS IN
1100 PM EST MON JAN 22 2018

NOTE: "FAIR" INDICATES FEW OR NO CLOUDS BELOW 12,000 FEET WITH NO
SIGNIFICANT WEATHER AND/OR OBSTRUCTIONS TO VISIBILITY.

* - STATION DOES NOT REPORT WEATHER SUCH AS PRECIPITATION OR FOG.

+ - STATION NOT QUALITY CONTROLLED BY THE NATIONAL WEATHER SERVICE.
    USE DATA WITH CAUTION...ESPECIALLY DEWPOINT AND RELATIVE
    HUMIDITY OBSERVATIONS.

INZ001>003-010>013-019-020-230500-
NORTHWEST INDIANA

CITY           SKY/WX    TMP DP  RH WIND       PRES   REMARKS
GARY /AIRPORT/ MOCLDY    43  32  65 W12G23    29.53S
KNOX *+        CLOUDY    41  36  81 W12G21    29.55R
LA PORTE +     CLOUDY    40  35  79 W13G18    29.54R WCI  33
MICHIGAN CITY+ MIX PCPN  41  36  81 W7G17     29.54R
MONTICELLO +   FAIR      37  34  90 W5        29.57S WCI  33
RENSSELAER +   FAIR      36  32  87 SW6       29.56S WCI  31
VALPARAISO     CLOUDY    42  34  73 MISG      29.54R

$$

LMZ046-743>745-230500-
SOUTHERN LAKE MICHIGAN

STATION/POSITION TIME  TEMP    WIND        PRES    WAVE
                       AIR SEA DIR/SP/G            HT
                 (UTC) (F)     (DEG/KT/KT) (MB)    (FT)
BURNS HARBOR     0340   41     240/ 11/ 20 1000.3R
MICHIGAN CITY    0340   39     220/ 17/ 18   N/A

$$

INZ004-005-014>016-021>024-230500-
NORTH CENTRAL INDIANA

CITY           SKY/WX    TMP DP  RH WIND       PRES   REMARKS
GOSHEN         LGT RAIN  42  38  85 W25G35    29.55R
LOGANSPORT +   CLOUDY    37  36  93 W7        29.58F WCI  32
PERU/GRISSOM   CLOUDY    40  40 100 W9        29.57R WCI  34
ROCHESTER +    FAIR      41  37  87 W10G17    29.57F
SOUTH BEND     CLOUDY    41  36  82 W12       29.54R
WARSAW +       LGT RAIN  39  37  93 W15G24    29.55R WCI  31

$$

INZ006>009-017-018-025>027-230500-
NORTHEAST INDIANA

CITY           SKY/WX    TMP DP  RH WIND       PRES   REMARKS
AUBURN +       LGT RAIN N/A N/A N/A SW13G24   29.52R
FORT WAYNE     LGT RAIN  45  40  82 W22G29    29.53S
HUNTINGTON +   CLOUDY    41  40  93 W10G26    29.56R
KENDALLVILLE + CLOUDY    45  40  85 W22G35    29.53R

$$

INZ028-029-035-036-043>045-051>053-230500-
WEST CENTRAL INDIANA

CITY           SKY/WX    TMP DP  RH WIND       PRES   REMARKS
CRAWFORDSVL +  MOCLDY    35  35 100 MISG      29.60S
GREENCASTLE +  CLOUDY    41  36  81 CALM      29.62R
LAFAYETTE      FAIR      36  34  92 W5        29.58S WCI  32
TERRE HAUTE    CLOUDY    40  35  83 CALM      29.63R

$$

INZ030>032-037>040-046>048-054>057-064-065-230500-
CENTRAL INDIANA

CITY           SKY/WX    TMP DP  RH WIND       PRES   REMARKS
FISHERS *+       N/A     39  39 100 W5        29.61  WCI  36
FRANKFORT +    FAIR      39  36  90 W7        29.61S WCI  34
GREENWOOD *+   FAIR      44  37  79 NW3       29.62R
INDIANAPOLIS   FAIR      38  35  89 W8        29.61R WCI  32
-EAGLE CREEK   FAIR      40  35  83 W8        29.60R WCI  34
MARION +       MOCLDY    40  37  89 W20G25    29.59R WCI  31
MT COMFORT *+  MOCLDY    41  39  93 W10       29.62R
SHELBYVILLE    FAIR      45  37  73 W9        29.61R
ZIONSVILLE +   FAIR      38  35  91 W9        29.61R WCI  31

$$

INZ033-034-041-042-049-050-058-059-230500-
EAST CENTRAL INDIANA

CITY           SKY/WX    TMP DP  RH WIND       PRES   REMARKS
MUNCIE         MOCLDY    44  37  76 W24G30    29.59R
RICHMOND +     FAIR      46  43  87 W21G33    29.60R

$$

INZ060-061-067>069-081>083-085>088-230500-
SOUTHWEST INDIANA

CITY           SKY/WX    TMP DP  RH WIND       PRES   REMARKS
EVANSVILLE     CLOUDY    46  34  62 SW15      29.67S
HUNTINGBURG +  MOCLDY    48  33  56 SW17G28   29.67R
WASHINGTON +   FAIR      45  31  57 W9G18     29.64R

$$

INZ062-063-066-070>080-084-089>092-230500-
SOUTH CENTRAL AND SOUTHEAST INDIANA

CITY           SKY/WX    TMP DP  RH WIND       PRES   REMARKS
BATESVILLE *+    N/A    N/A N/A N/A MISG        N/A
BEDFORD +      FAIR      46  34  61 SW9       29.63S
BLOOMINGTON    FAIR      46  34  62 W9        29.62R
FRENCH LICK *+ FAIR      46  27  46 SW13G21   29.65S
MADISON *+     FAIR      50  32  50 SW15G25   29.68R
NORTH VERNON + FAIR      48  36  61 SW15G26   29.63R
SEYMOUR +      FAIR      50  32  50 SW20G32   29.64R

$$





USA.gov is the U.S. government's official web portal to all federal, state and local government web resources and services.